Probability
13 14 14 13 13 18 22 23 25 27 26 22 17 14 12 11 11 12 13 10 7 7 6 5 5 4 4 2 2 2 2 1 1 1 2 2 2 2 3 3 1 0 0
16 16 16 14 15 21 25 25 26 26 24 22 19 16 14 13 12 13 13 10 8 7 7 7 6 5 5 5 4 3 3 3 3 3 3 3 3 2 3 4 2 1 1
17 18 17 16 18 24 28 28 29 29 25 22 19 16 15 14 13 13 13 11 8 7 8 9 7 6 6 7 7 7 7 7 7 7 7 6 4 3 3 4 4 4 4
16 17 18 17 18 23 27 30 33 34 29 24 19 15 15 15 14 15 15 12 9 8 9 9 8 8 8 8 8 9 10 10 10 10 9 7 5 3 3 4 6 7 6
16 19 20 19 19 21 23 28 36 39 35 28 21 17 16 16 16 18 19 17 13 12 12 10 10 10 10 9 8 9 11 12 13 13 11 6 4 4 4 4 6 6 6
15 21 25 24 23 22 22 28 39 43 39 33 25 21 19 18 19 21 22 19 16 15 14 13 13 12 12 10 9 9 11 14 16 16 12 8 5 6 6 6 5 4 5
14 20 27 29 28 25 26 34 44 46 42 35 30 26 22 21 22 23 21 17 15 16 16 17 18 16 13 10 9 11 12 14 15 15 12 10 7 6 7 6 4 3 3
12 18 25 31 31 29 31 40 49 49 43 37 34 32 28 25 25 24 20 17 16 17 19 22 22 19 16 11 10 12 14 15 14 13 14 12 8 7 7 6 4 2 1
11 16 22 28 29 29 34 42 50 50 44 38 36 35 34 30 27 25 22 21 22 22 24 26 24 21 18 15 14 15 18 18 16 16 18 16 13 10 9 9 8 7 5
12 14 19 23 25 27 33 42 50 50 44 38 36 36 37 34 30 28 25 24 26 27 28 28 25 22 20 20 19 19 20 21 20 19 20 20 19 17 15 14 14 14 14
12 14 19 23 25 27 33 44 51 50 45 41 38 36 36 34 31 30 27 26 29 30 30 29 26 23 22 24 24 24 24 24 23 21 22 24 24 23 22 20 19 19 20
12 16 22 27 30 33 38 46 51 50 46 43 41 39 37 35 33 32 30 31 33 32 31 31 30 27 26 27 28 29 31 30 26 24 24 25 26 25 24 22 21 20 20
14 19 26 33 38 44 48 51 51 50 47 43 42 41 40 38 38 36 35 35 35 34 35 36 36 35 33 33 32 33 35 33 29 25 23 23 24 24 22 21 20 19 17
20 25 33 39 47 53 56 56 54 51 49 45 43 44 44 42 42 40 38 38 37 37 38 39 40 40 39 39 38 36 34 32 28 26 23 21 21 22 20 18 19 19 17
25 30 37 44 50 55 57 56 54 52 52 51 48 48 47 44 44 44 43 43 41 39 39 40 39 38 36 35 35 34 32 30 30 29 25 22 20 19 16 14 15 16 16
27 31 37 43 48 51 53 53 52 52 52 53 53 51 48 46 46 48 49 48 46 42 40 39 38 34 28 23 22 25 28 31 31 30 26 22 18 15 12 11 10 10 10
32 32 34 40 45 47 50 51 51 51 51 51 51 50 49 49 50 51 52 52 50 46 43 41 40 36 25 15 11 15 22 27 30 30 28 23 17 14 12 12 10 8 8
38 35 33 37 43 46 49 51 51 52 52 51 50 50 51 52 54 55 56 56 54 51 47 45 45 39 27 13 8 11 19 25 28 30 29 25 20 15 13 13 12 11 10
39 35 33 37 42 45 48 50 51 53 53 52 52 53 53 53 54 57 59 58 56 53 50 49 47 41 28 14 7 11 22 29 31 32 29 26 22 16 12 12 13 12 12
32 33 34 38 42 46 49 51 52 53 52 52 52 54 52 51 51 54 57 57 55 52 51 49 47 42 32 17 8 11 25 35 37 34 28 23 18 12 10 12 15 14 12
26 29 35 41 46 49 51 52 53 52 51 50 50 51 50 48 48 52 55 55 53 52 51 48 46 42 34 20 8 9 22 33 36 30 23 16 10 6 6 10 13 13 11
23 27 36 44 47 50 52 53 53 52 51 50 50 50 49 47 47 50 52 51 51 49 47 44 40 38 33 20 8 5 11 21 25 21 14 8 3 1 2 4 6 7 6
23 27 34 41 45 48 51 53 54 53 52 52 51 50 48 46 46 48 48 46 45 44 42 38 33 32 29 20 10 3 3 7 12 11 6 2 0 0 0 0 1 2 2
26 28 32 37 42 46 49 51 54 55 54 52 50 47 46 44 44 44 42 40 39 38 38 36 32 28 25 19 12 6 3 3 4 4 3 1 1 1 1 1 2 2 2
30 31 34 37 41 45 47 48 50 53 51 48 45 43 42 40 38 36 33 31 28 29 31 32 29 24 19 15 11 8 6 5 4 3 3 3 3 3 3 4 4 4 3
33 35 36 38 41 44 46 46 47 48 47 44 41 40 40 37 33 30 27 23 20 21 23 24 22 18 13 10 9 8 7 6 5 4 3 3 4 5 5 5 4 4 4
Wind_Speed
11 11 11 11 10 8 7 6 5 5 3 3 3 2 2 2 2 3 4 3 2 2 1 1 1 1 1 2 2 1 1 1 1 0 0 1 2 2 3 2 2 3 3
12 11 11 10 10 9 8 7 6 6 5 3 2 2 2 2 2 2 3 3 2 2 2 1 0 1 1 1 1 1 1 1 1 1 0 0 0 1 2 3 3 3 3
13 13 11 10 10 10 9 8 6 6 6 4 3 2 2 1 1 2 2 3 3 2 1 1 1 1 1 2 2 2 2 1 0 0 1 1 0 0 0 2 2 2 2
13 13 13 11 11 11 10 8 7 6 6 5 4 3 3 2 2 2 2 3 3 2 2 2 1 1 0 1 2 2 1 1 1 1 1 0 1 1 0 1 1 2 2
12 13 13 11 11 11 11 9 8 7 6 5 4 4 3 2 2 2 3 3 2 2 2 2 1 1 1 0 0 0 0 0 1 1 0 1 0 1 1 1 1 1 2
11 11 12 11 10 10 10 10 9 7 6 5 4 4 3 2 2 2 3 2 2 2 2 2 1 1 1 1 1 1 1 0 0 1 1 0 0 0 0 1 2 2 2
10 10 10 11 10 10 10 10 10 8 7 7 5 4 3 2 2 2 2 2 2 2 2 2 2 1 1 1 1 1 1 1 1 1 1 1 1 1 0 1 1 2 2
9 11 11 10 10 10 10 10 10 9 8 7 5 4 4 3 2 2 1 1 1 1 2 2 2 1 1 1 1 1 2 1 1 1 1 1 1 1 1 1 1 2 2
9 10 11 11 11 10 9 10 10 9 8 7 6 4 4 3 2 2 2 1 1 1 3 3 3 2 1 1 1 1 1 1 1 1 1 1 1 1 1 1 1 1 2
8 9 9 9 9 9 9 9 10 9 7 7 6 5 4 3 2 2 2 1 1 1 2 2 2 2 2 2 1 1 1 2 2 2 1 1 1 1 1 1 1 1 1
6 7 8 8 8 9 9 9 9 9 8 7 6 5 5 4 4 3 2 2 2 2 2 2 2 2 2 2 2 3 2 2 2 2 2 2 2 1 2 2 1 1 1
5 6 7 6 6 7 8 8 8 8 7 7 6 5 5 5 4 4 3 3 3 2 2 2 3 3 3 3 3 3 2 2 2 2 2 2 1 1 2 2 2 1 2
5 5 6 5 5 5 6 6 7 7 7 6 6 5 5 5 4 4 3 3 3 3 3 3 3 2 2 2 2 2 1 2 2 2 2 2 2 2 1 1 1 2 2
5 5 6 5 4 4 4 5 5 5 6 6 6 5 5 4 4 4 3 3 3 3 3 3 3 2 2 2 2 2 2 2 2 2 2 2 2 2 2 2 2 2 2
4 4 5 5 4 5 4 4 4 4 5 5 5 4 4 3 4 4 3 3 3 4 3 3 3 3 3 3 2 3 3 2 2 2 2 2 1 1 0 1 1 2 1
4 3 5 4 4 4 4 3 3 4 4 4 4 4 4 4 4 3 3 3 3 3 3 2 2 3 3 1 2 2 2 2 2 2 2 2 1 1 1 0 1 1 1
4 3 3 3 3 3 4 4 3 3 3 4 4 4 4 4 3 3 3 3 3 3 3 3 3 2 1 1 3 4 3 3 2 2 2 3 2 2 1 1 1 2 3
3 3 2 2 3 3 4 3 3 3 3 4 4 3 4 4 3 3 3 3 3 3 3 3 3 2 2 1 2 3 4 3 2 2 2 2 1 2 0 1 1 2 3
3 2 1 1 1 2 2 2 2 3 3 3 3 3 3 3 3 3 3 2 3 3 4 3 3 3 2 3 3 3 3 3 3 3 2 2 1 1 1 1 2 2 3
2 2 1 1 1 1 1 1 1 1 1 1 1 2 2 2 3 3 3 3 3 3 3 3 3 3 2 3 4 4 3 3 2 2 2 1 2 3 2 2 2 2 3
1 1 1 1 1 1 1 1 1 1 1 1 1 2 2 2 3 3 3 3 3 3 3 3 3 3 3 4 5 5 3 3 2 2 2 1 4 4 3 2 2 3 2
1 0 1 1 1 1 2 1 1 1 1 1 2 3 3 4 3 3 3 4 4 4 4 3 3 2 3 3 4 5 3 2 1 1 1 2 4 3 3 2 2 2 2
1 0 0 1 1 1 1 1 1 1 1 2 2 3 3 3 3 4 4 4 3 3 3 2 2 1 1 1 2 3 2 1 0 1 1 3 3 2 1 3 3 2 1
1 1 1 1 1 0 0 1 0 1 2 2 2 2 3 3 3 2 2 2 2 3 3 2 2 2 1 1 1 0 0 0 0 1 2 2 2 2 2 2 2 2 2
1 1 1 1 1 1 1 1 0 1 2 2 2 3 4 3 2 1 0 1 0 2 3 2 2 2 2 2 2 2 1 1 1 1 1 1 1 2 2 2 2 2 2
1 1 1 2 1 1 2 1 1 1 2 2 2 3 2 2 2 2 2 5 2 2 1 1 1 1 1 2 2 1 1 2 3 2 2 2 2 2 2 2 2 2 2
Wind_Direction
161 160 160 157 154 148 148 151 158 149 155 156 160 156 156 171 155 154 141 145 151 130 124 77 94 105 111 124 140 142 175 169 144 149 243 217 194 179 167 173 180 178 177
162 165 167 161 159 153 152 156 162 160 169 169 171 170 156 167 158 135 134 148 155 157 164 148 175 128 141 140 160 144 168 216 164 159 149 250 303 291 206 179 188 191 184
168 167 169 166 163 159 160 167 168 163 175 170 172 174 146 165 148 142 151 165 161 162 97 149 194 190 191 169 187 180 187 201 236 160 163 158 180 269 267 209 184 175 185
169 171 173 173 171 166 166 164 161 160 165 170 181 180 168 178 176 161 153 160 170 169 172 193 194 203 200 169 201 165 207 198 224 244 217 171 119 120 320 284 194 188 202
166 172 171 172 173 170 167 163 159 160 163 176 187 194 191 180 166 151 145 163 175 180 178 170 167 186 159 164 262 145 220 241 267 251 231 223 206 193 170 251 268 237 208
163 169 167 163 168 165 162 162 156 159 163 174 187 191 208 190 172 166 159 172 170 179 176 155 159 160 169 194 208 198 181 226 278 306 300 232 99 242 240 255 259 263 242
163 157 158 162 168 168 165 160 156 162 168 175 184 183 204 196 178 191 179 184 176 172 166 162 159 164 183 201 202 196 200 215 229 234 277 303 274 281 271 271 273 290 281
154 154 156 163 171 169 165 159 157 164 170 174 180 177 189 199 188 196 192 188 190 152 148 160 159 168 214 214 207 219 210 197 216 224 243 264 276 294 250 234 251 278 285
154 154 159 167 172 170 165 159 156 161 167 171 170 167 168 179 188 172 206 203 166 155 145 157 158 174 210 228 215 224 220 185 213 240 247 256 268 266 280 278 254 253 286
160 156 157 165 164 163 158 153 153 159 163 166 175 174 176 183 191 174 178 198 175 152 145 162 171 180 201 212 208 222 212 192 205 222 237 256 281 296 293 282 283 286 252
142 148 148 154 157 157 158 155 152 157 166 171 173 171 175 183 189 194 183 190 187 176 175 192 191 194 206 211 216 220 206 205 214 235 224 227 236 280 295 293 287 291 277
125 131 135 135 144 150 154 155 159 165 169 169 167 173 174 181 189 193 194 190 191 197 198 204 204 210 215 220 222 231 209 211 217 221 221 224 230 252 283 300 317 310 296
101 109 111 122 125 135 143 154 161 166 168 165 170 174 181 185 189 193 194 192 194 204 207 206 213 225 224 218 220 233 215 213 216 202 211 223 209 232 257 266 286 286 298
94 104 107 107 113 117 127 141 154 161 163 165 175 175 184 189 190 194 194 196 202 213 219 212 213 218 230 215 206 214 225 225 222 204 215 234 221 233 260 259 268 283 294
83 86 101 107 113 115 118 131 144 148 158 161 174 178 183 187 191 194 197 195 197 212 217 223 223 224 231 226 205 203 211 218 230 217 211 215 184 133 17 307 312 304 297
109 95 95 109 118 120 130 130 144 146 149 162 176 175 180 190 197 195 190 191 193 207 204 214 227 240 257 246 202 223 222 205 209 226 237 209 174 145 150 139 335 312 290
109 96 102 122 132 140 138 147 143 149 158 168 176 177 177 190 195 201 192 197 200 203 202 212 218 223 268 256 226 222 238 226 209 210 231 265 255 180 193 254 259 279 280
92 97 100 143 160 153 153 153 159 164 175 180 184 181 185 190 189 196 196 196 197 201 206 216 220 216 234 236 247 234 236 226 208 210 217 238 247 267 320 267 273 272 276
75 70 61 52 87 112 123 131 162 183 193 190 185 177 185 193 194 198 193 190 199 206 208 215 220 216 220 200 206 225 241 228 214 214 218 221 202 147 98 252 261 278 293
73 35 13 49 84 67 83 112 184 186 194 191 177 168 187 198 197 195 193 198 210 214 213 213 212 211 208 194 204 217 239 235 226 206 187 195 185 172 171 215 242 263 286
86 42 14 72 104 102 110 156 236 222 238 234 207 197 206 218 208 197 200 204 214 215 216 218 215 211 205 192 203 213 237 249 231 213 192 166 158 172 185 209 233 243 270
44 65 49 63 99 123 140 181 219 245 254 238 216 214 216 228 221 209 214 213 213 219 215 214 220 218 199 193 193 197 225 276 268 249 189 139 147 170 192 212 239 252 284
315 271 46 34 82 119 145 204 220 243 252 243 230 222 223 230 225 217 217 216 215 225 220 214 220 227 170 140 165 185 189 231 289 332 127 141 159 160 198 215 235 259 266
327 6 11 337 351 336 278 182 206 240 255 243 236 228 218 224 219 220 226 222 226 233 232 229 222 205 195 135 122 144 134 105 130 91 110 138 183 230 237 241 247 245 254
317 334 318 294 307 320 336 352 254 232 255 245 235 240 230 218 202 182 58 231 250 252 242 240 224 216 218 209 192 196 210 224 191 146 196 219 210 220 228 229 236 240 233
321 296 280 269 273 292 294 301 308 256 246 243 243 247 239 207 199 159 85 38 32 35 35 201 205 181 156 154 152 144 167 197 182 178 218 219 216 225 228 234 241 244 246